TimePDT,TemperatureF,Dew PointF,Humidity,Sea Level PressureIn,VisibilityMPH,Wind Direction,Wind SpeedMPH,Gust SpeedMPH,PrecipitationIn,Events,Conditions,WindDirDegrees,DateUTC
12:53 AM,46.0,42.1,86,29.89,10.0,ENE,3.5,-,N/A,,Mostly Cloudy,70,2014-04-26 07:53:00
1:53 AM,43.0,39.9,89,29.90,10.0,SSW,5.8,-,N/A,,Mostly Cloudy,210,2014-04-26 08:53:00
2:53 AM,43.0,39.9,89,29.90,10.0,Calm,Calm,-,N/A,,Mostly Cloudy,0,2014-04-26 09:53:00
3:53 AM,44.1,39.0,82,29.90,10.0,Calm,Calm,-,N/A,,Mostly Cloudy,0,2014-04-26 10:53:00
4:53 AM,43.0,39.0,86,29.90,10.0,SSE,3.5,-,N/A,,Mostly Cloudy,160,2014-04-26 11:53:00
5:53 AM,43.0,41.0,93,29.90,10.0,South,6.9,-,N/A,,Mostly Cloudy,180,2014-04-26 12:53:00
6:53 AM,44.1,42.1,93,29.90,10.0,Calm,Calm,-,N/A,,Overcast,0,2014-04-26 13:53:00
7:53 AM,44.1,39.9,85,29.90,10.0,South,6.9,-,N/A,,Mostly Cloudy,190,2014-04-26 14:53:00
8:53 AM,46.0,41.0,83,29.89,10.0,South,10.4,-,N/A,,Mostly Cloudy,190,2014-04-26 15:53:00
9:53 AM,48.9,41.0,74,29.88,10.0,South,11.5,-,N/A,,Partly Cloudy,190,2014-04-26 16:53:00
10:53 AM,51.1,39.0,63,29.88,10.0,South,8.1,-,N/A,,Mostly Cloudy,180,2014-04-26 17:53:00
11:53 AM,52.0,37.0,57,29.87,10.0,South,12.7,-,N/A,,Mostly Cloudy,180,2014-04-26 18:53:00
12:53 PM,55.0,37.0,51,29.84,10.0,SW,13.8,-,N/A,,Scattered Clouds,220,2014-04-26 19:53:00
1:53 PM,55.9,35.1,45,29.82,10.0,South,11.5,19.6,N/A,,Mostly Cloudy,190,2014-04-26 20:53:00
2:53 PM,55.0,36.0,49,29.81,10.0,South,9.2,-,N/A,,Mostly Cloudy,190,2014-04-26 21:53:00
3:53 PM,55.9,36.0,47,29.79,10.0,SSW,12.7,21.9,N/A,,Overcast,200,2014-04-26 22:53:00
4:53 PM,53.1,43.0,69,29.79,10.0,WSW,4.6,-,0.02,,Overcast,240,2014-04-26 23:53:00
5:53 PM,54.0,41.0,62,29.77,10.0,SW,10.4,-,N/A,,Overcast,230,2014-04-27 00:53:00
6:53 PM,51.1,44.1,77,29.76,7.0,South,9.2,-,0.00,Rain,Light Rain,180,2014-04-27 01:53:00
7:53 PM,48.9,43.0,80,29.75,10.0,South,10.4,-,0.06,Rain,Light Rain,180,2014-04-27 02:53:00
8:53 PM,48.9,44.1,83,29.75,9.0,SE,11.5,-,0.01,Rain,Light Rain,140,2014-04-27 03:53:00
9:53 PM,48.0,45.0,89,29.75,10.0,ESE,11.5,-,0.02,Rain,Light Rain,120,2014-04-27 04:53:00
10:16 PM,48.0,45.0,89,29.74,10.0,SE,11.5,-,0.00,,Overcast,130,2014-04-27 05:16:00
10:53 PM,48.0,45.0,89,29.74,10.0,South,10.4,-,0.00,Rain,Light Rain,170,2014-04-27 05:53:00
11:53 PM,48.0,44.1,86,29.74,10.0,South,11.5,-,0.04,Rain,Light Rain,180,2014-04-27 06:53:00